Погода в Спиридоновке

Россия / Самарская область     53°06′22″N   50°38′35″E
темп.,
°C
ветер,
м/с
пор.,
м/с
влажн.,
%
обл.,
%
осадки,
мм/ч
давл.,
гПа
погр.,
м
20 апреля, вт
вт2001:00+5вюв6125099 0.0 1026936
04:00+3в6125226 0.0 1028567
07:00+2в713522 0.0 1029654
10:00+6вюв810390 0.0 1029997
13:00+9вюв810330 0.0 10281359
16:00+10вюв81031100 0.0 10271519
19:00+8вюв71238100 0.0 1027669
22:00+6вюв71443100 0.0 1027627
21 апреля, ср
ср2101:00+4юв81749100 0.0 1027727
04:00+3юв81748100 0.0 1027626
07:00+3юв81749100 0.0 1026703
10:00+5юв91647100 0.0 1025816
13:00+5юв81655100 0.4 1026898
16:00+3ююв71682100 1.6 1026854
19:00+3ююв71692100 5.9 1026779
22:00+4ююв71590100 8.0 1026794
22 апреля, чт
чт2201:00+5ююв61388100 1.1 1025780
04:00+5ююв61291100 1.8 1025620
07:00+5ююв61389100 0.4 1026594
10:00+6ююв51184100 0.6 1026500
13:00+6ююв51088100 0.0 1028591
16:00+6ююв6987100 0.0 1028599
19:00+5ююв5986100 0.0 1028527
22:00+4ююв5989100 0.0 1028501
23 апреля, пт
пт2301:00+4юв3793100 0.0 1027367
04:00+4юв3595100 0.0 1027248
07:00+5юв249299 0.0 1027238
10:00+7в238684 0.0 1026421
13:00+10в3468100 0.0 1025941
16:00+13в3458100 0.0 10241327
19:00+11всв3468100 0.0 1023105
22:00+8юв4787100 0.0 1023269
24 апреля, сб
сб2401:00+7вюв2591100 0.0 1022178
04:00+7всв2494100 0.0 1020243
07:00+7всв3594100 0.3 1019326
10:00+7св2388100 0.5 1017399
13:00+8ссв3385100 0.3 1016432
16:00+10с3372100 0.3 1017933
19:00+8св2286100 0.1 1017126
22:00+6зюз01913 0.1 101710